HST 1 20580U 90037B 26121.12897901 .00008025 00000+0 25885-3 0 9998 2 20580 28.4760 42.0596 0001815 349.3282 10.7275 15.30223611781356 POLAR 1 23802U 96013A 26121.05325193 .00000031 00000+0 00000+0 0 9996 2 23802 79.8077 227.5990 6423177 210.6950 87.0184 1.29845840144246 SWAS 1 25560U 98071A 26121.36297524 .00004806 00000+0 30708-3 0 9991 2 25560 69.8974 348.2409 0007579 304.8202 55.2249 15.09299724490200 CXO 1 25867U 99040B 26124.41803558 .00000649 00000+0 00000+0 0 9996 2 25867 55.4610 117.9253 7906764 310.5238 359.8768 0.37801413 17157 XMM-NEWTON 1 25989U 99066A 26123.47149006 .00000033 00000+0 00000+0 0 9992 2 25989 64.7152 283.5560 4687569 65.6998 0.1354 0.50130428 22771 TERRA 1 25994U 99068A 26121.52585867 .00000451 00000+0 10087-3 0 9997 2 25994 97.9495 172.9138 0002921 45.1139 60.6989 14.61065440402793 CLUSTER II-FM7 (SAMBA) 1 26410U 00041A 26119.05025564 .00002271 00000+0 00000+0 0 9994 2 26410 149.6805 42.4302 8992946 259.0060 0.6082 0.44823564 20095 CLUSTER II-FM8 (TANGO) 1 26464U 00045B 26121.13459255 .00002884 00000+0 00000+0 0 9997 2 26464 149.9674 43.7125 9000108 260.1784 0.5507 0.44400441 20080 ODIN 1 26702U 01007A 26121.09167108 .00084260 00000+0 89257-3 0 9992 2 26702 97.3956 159.4589 0000884 5.9473 354.1797 15.63857267382017 TIMED 1 26998U 01055B 26121.30665545 .00001337 00000+0 12525-3 0 9992 2 26998 74.0678 329.4069 0001521 204.0761 156.0353 14.95181299323819 CORIOLIS 1 27640U 03001A 26121.47869720 .00000129 00000+0 81309-4 0 9994 2 27640 98.7141 129.0747 0013797 352.5331 7.5637 14.19931683207596 SORCE 1 27651U 03004A 26121.51290514 .00003204 00000+0 24146-3 0 9995 2 27651 39.9894 167.9180 0015978 76.0441 284.2129 15.03456538264874 MOST 1 27843U 03031D 26121.53811794 .00000080 00000+0 56499-4 0 9995 2 27843 98.7059 129.9130 0010447 32.9980 327.1848 14.21312627184089 SCISAT 1 1 27858U 03036A 26120.88654323 .00000763 00000+0 10226-3 0 9991 2 27858 73.9292 265.3168 0007784 331.5566 28.5185 14.81394038224446 SWIFT 1 28485U 04047A 26121.49690485 .00057409 00000+0 56747-3 0 9995 2 28485 20.5518 183.8433 0002416 42.5034 317.5598 15.64096013179539 HINODE (SOLAR-B) 1 29479U 06041A 26121.51397443 .00000854 00000+0 15517-3 0 9998 2 29479 98.0573 138.3521 0018918 77.5695 282.7626 14.68554904 48027 SHIJIAN-6 02A (SJ-6 02A) 1 29505U 06046A 26121.38042122 .00011495 00000+0 59461-3 0 9998 2 29505 97.6405 162.1059 0001813 328.6604 31.4520 15.16410426 65174 SHIJIAN-6 02B (SJ-6 02B) 1 29506U 06046B 26121.49125706 .00002244 00000+0 17925-3 0 9992 2 29506 97.7142 150.8424 0010951 219.1296 140.9137 15.01236835 63732 FGRST (GLAST) 1 33053U 08029A 26121.47304328 .00003530 00000+0 12921-3 0 9994 2 33053 25.5806 168.7751 0008624 133.6108 226.5146 15.23694334988707 SDO 1 36395U 10005A 26121.41221787 -.00000059 00000+0 00000+0 0 9999 2 36395 34.5566 87.0466 0001029 27.9299 150.9756 1.00272970 59597 CRYOSAT 2 1 36508U 10013A 26121.49149343 .00000251 00000+0 61552-4 0 9996 2 36508 92.0296 265.9660 0002668 91.1812 268.9701 14.51907756851305 X-SAT 1 37389U 11015C 26121.53870556 .00000282 00000+0 13717-3 0 9992 2 37389 98.3481 100.7925 0015019 116.9907 243.2809 14.25192700781036 GCOM-W1 (SHIZUKU) 1 38337U 12025A 26121.41573941 .00000579 00000+0 13853-3 0 9993 2 38337 98.2000 62.6877 0001350 94.4004 17.9223 14.57125900742226 NUSTAR 1 38358U 12031A 26121.58335647 .00005330 00000+0 27962-3 0 9996 2 38358 6.0279 23.5916 0006949 142.9871 314.8777 15.08359448 5277 NEOSSAT 1 39089U 13009D 26121.44963806 .00000180 00000+0 76847-4 0 9998 2 39089 98.4168 302.5958 0011579 31.4720 328.7157 14.35810066690034 BRITE-AUSTRIA 1 39091U 13009F 26121.47146933 .00000213 00000+0 87095-4 0 9992 2 39091 98.3984 302.0659 0010650 26.2077 333.9646 14.36523169690342 IRIS 1 39197U 13033A 26121.49597910 .00001309 00000+0 15606-3 0 9998 2 39197 97.9362 320.9150 0025814 110.6499 249.7488 14.85788142693443 HISAKI (SPRINT-A) 1 39253U 13049A 26121.36167991 .00000133 00000+0 94528-4 0 9991 2 39253 29.7192 98.0701 0136594 357.2678 2.7141 13.55538672625064 CASSIOPE 1 39265U 13055A 26121.45967632 .00031642 -38596-6 36719-3 0 9996 2 39265 80.9127 123.3087 0302515 219.1509 138.7492 15.22020923660553 STSAT-3 1 39422U 13066G 26121.49774273 .00003030 00000+0 23264-3 0 9996 2 39422 97.6180 92.1730 0009375 173.9734 186.1606 15.02480659677191 SWARM B 1 39451U 13067A 26121.51690390 .00003859 00000+0 13896-3 0 9998 2 39451 87.7474 356.4904 0002463 96.3163 263.8367 15.28276293676116 SWARM A 1 39452U 13067B 26121.49073113 .00014056 00000+0 25028-3 0 9995 2 39452 87.3320 73.5697 0003650 88.8963 271.2716 15.49983964699010 SWARM C 1 39453U 13067C 26121.49066552 .00014162 00000+0 25217-3 0 9993 2 39453 87.3322 72.1511 0003650 88.6986 271.4692 15.49985733698971 BRITE-CA1 (TORONTO) 1 40020U 14033L 26121.35910044 .00001125 00000+0 17595-3 0 9993 2 40020 97.9667 251.1712 0079937 67.3231 293.6404 14.72609532635324 OCO 2 1 40059U 14035A 26121.45951387 .00000483 00000+0 11730-3 0 9994 2 40059 98.1996 63.4728 0001309 86.2103 273.9245 14.57071158629249 BRITE-PL2 (HEWELIUSZ) 1 40119U 14049B 26121.30503424 .00002540 00000+0 24100-3 0 9996 2 40119 97.9038 232.9641 0012762 264.0645 95.9121 14.94416112634446 MMS 1 1 40482U 15011A 26121.58335647 -.00000479 00000+0 00000+0 0 9998 2 40482 71.5395 349.4295 8364372 166.4012 224.5632 0.28359840 1362 MMS 2 1 40483U 15011B 26121.58335647 -.00000479 00000+0 00000+0 0 9999 2 40483 71.5424 349.4363 8364361 166.4013 224.5509 0.28359813 1364 MMS 3 1 40484U 15011C 26121.58335647 -.00000479 00000+0 00000+0 0 9990 2 40484 71.5424 349.4363 8364361 166.4013 224.5509 0.28359813 1365 MMS 4 1 40485U 15011D 26121.58335647 -.00000479 00000+0 00000+0 0 9991 2 40485 71.5394 349.4317 8363917 166.4089 224.5386 0.28359800 1369 ASTROSAT 1 40930U 15052A 26118.24030020 .00001821 00000+0 14027-3 0 9996 2 40930 5.9957 154.8367 0007584 39.2274 320.8403 14.82417667572402 DAMPE 1 41173U 15078A 26121.49369126 .00001245 00000+0 44600-4 0 9998 2 41173 97.4565 126.7342 0010326 238.8121 121.2108 15.30666216577400 PISAT 1 41784U 16059B 26121.41546622 .00001220 00000+0 21530-3 0 9995 2 41784 97.8185 123.8809 0028959 358.1124 1.9968 14.68899124512870 HXMT (HUIYAN) 1 42758U 17034A 26121.35880383 .00006453 00000+0 31848-3 0 9995 2 42758 43.0136 83.7042 0032269 210.3089 149.5893 15.18045059490543 FLYING LAPTOP 1 42831U 17042G 26121.52015928 .00002930 00000+0 23427-3 0 9990 2 42831 97.4477 278.9186 0017805 283.5094 76.4146 15.00844264479452 ZHANGHENG 1-01 (CSES-1) 1 43194U 18015C 26121.55577855 .00009709 00000+0 44231-3 0 9996 2 43194 97.6829 286.2961 0017733 68.1676 292.1443 15.20749457457558 SALSAT 1 46495U 20068K 26120.97394616 .00009136 00000+0 32572-3 0 9990 2 46495 97.8854 121.1916 0011671 106.1690 254.0834 15.29093123308148 IXPE 1 49954U 21121A 26121.50002315 .00012432 00000+0 69021-3 0 9998 2 49954 0.2310 310.8159 0007162 89.2022 243.9909 15.09811689 5611